1409881828520,0.000189819
1409881888520,0.000185150
1409881948520,0.000187014
1409882008520,0.000188615
1409882068520,0.000183931
1409882128520,0.000179770
1409882188520,0.000180911
1409882248520,0.000180850
1409882308520,0.000181850
1409882368520,0.000178737
1409882428520,0.000179821
1409882488520,0.000178545
1409882548520,0.000178071
1409882608520,0.000177500
1409882668520,0.000177285
1409882728520,0.000177931
1409882788520,0.000178461
1409882848520,0.000180337
1409882908520,0.000176291
1409882968520,0.000176987
1409883028520,0.000180166
1409883088520,0.000177071
1409883148520,0.000178490
1409883208520,0.000178686
1409883268520,0.000177002
1409883328520,0.000177489
1409883388520,0.000176881
1409883448520,0.000177415
1409883508520,0.000175979
1409883568520,0.000177173
1409883628520,0.000176999
1409883688520,0.000180187
1409883748520,0.000176816
1409883808520,0.000175699
1409883868520,0.000177404
1409883928520,0.000178568
1409883988520,0.000176390
1409884048520,0.000177199
1409884108520,0.000178383
1409884168520,0.000178011
1409884228520,0.000177341
1409884288520,0.000178613
1409884348520,0.000177226
1409884408520,0.000178214
1409884468520,0.000177505
1409884528520,0.000176147
1409884588520,0.000177270
1409884648520,0.000176926
1409884708520,0.000175855
1409884768520,0.000176208
1409884828520,0.000176468
1409884888520,0.000176553
1409884948520,0.000178230
1409885008520,0.000178769
1409885068520,0.000178618
1409885128520,0.000178036
1409885188520,0.000177481
1409885248520,0.000177801
1409885308520,0.000177326
1409885368520,0.000178067
1409885428520,0.000178213
1409885488520,0.000178427
1409885548520,0.000179347
1409885608520,0.000175606
1409885668520,0.000176025
1409885728520,0.000175408
1409885788520,0.000175138
1409885848520,0.000176948
1409885908520,0.000176641
1409885968520,0.000176613
1409886028521,0.000175876
1409886088521,0.000176144
1409886148521,0.000176349
1409886208521,0.000176610
1409886268521,0.000178070
1409886328521,0.000177440
1409886388521,0.000177209
1409886448521,0.000176665
1409886508521,0.000176852
1409886568521,0.000176893
1409886628521,0.000177977
1409886688521,0.000174549
1409886748521,0.000176003
1409886808521,0.000176040
1409886868521,0.000176074
1409886928521,0.000175460
1409886988521,0.000177490
1409887048521,0.000178929
1409887108521,0.000178174
1409887168521,0.000177823
1409887228521,0.000176799
1409887288521,0.000174929
1409887348521,0.000177419
1409887408521,0.000177404
1409887468521,0.000177128
1409887528521,0.000178045
1409887588521,0.000178865
1409887648521,0.000178667
1409887708521,0.000178875
1409887768521,0.000180061
1409887828521,0.000176869
1409887888521,0.000178631
1409887948521,0.000178538
1409888008521,0.000177800
1409888068521,0.000178258
1409888128521,0.000178113
1409888188521,0.000178583
1409888248521,0.000177205
1409888308521,0.000176886
1409888368521,0.000179445
1409888428521,0.000178496
1409888488521,0.000177528
1409888548521,0.000178441
1409888608521,0.000179459
1409888668521,0.000180906
1409888728521,0.000180837
1409888788521,0.000177687
1409888848521,0.000179260
1409888908521,0.000178089
1409888968521,0.000178395
1409889028521,0.000176610
1409889088521,0.000176858
1409889148521,0.000178331
1409889208521,0.000177707
1409889268521,0.000178292
1409889328521,0.000178562
1409889388521,0.000179119
1409889448521,0.000178390
1409889508521,0.000179393
1409889568521,0.000181237
1409889628523,0.000180647
1409889688523,0.000179786
1409889748523,0.000179433
1409889808523,0.000178610
1409889868523,0.000178084
1409889928523,0.000177419
1409889988523,0.000178355
1409890048523,0.000180842
1409890108523,0.000177826
1409890168523,0.000176572
1409890228523,0.000176528
1409890288523,0.000176010
1409890348523,0.000177773
1409890408523,0.000178475
1409890468523,0.000177023
1409890528523,0.000178541
1409890588523,0.000176327
1409890648523,0.000177717
1409890708523,0.000176390
1409890768523,0.000178057
1409890828523,0.000179031
1409890888523,0.000178385
1409890948523,0.000178664
1409891008523,0.000178436
1409891068523,0.000178481
1409891128523,0.000178601
1409891188523,0.000179032
1409891248523,0.000178791
1409891308523,0.000179029
1409891368523,0.000176110
1409891428523,0.000179946
1409891488523,0.000179292
1409891548523,0.000177848
1409891608523,0.000179078
1409891668523,0.000177914
1409891728523,0.000177292
1409891788523,0.000177498
1409891848523,0.000176311
1409891908523,0.000178044
1409891968523,0.000177700
1409892028523,0.000177938
1409892088523,0.000177550
1409892148523,0.000177888
1409892208523,0.000178295
1409892268523,0.000180083
1409892328523,0.000181097
1409892388523,0.000181045
1409892448523,0.000178485
1409892508523,0.000178667
1409892568523,0.000178545
1409892628523,0.000180331
1409892688523,0.000180625
1409892748523,0.000181990
1409892808523,0.000181401
1409892868523,0.000178167
